Theta_e
300 295 291 295 295 297 296 295 295 299 304 303 307 310 312 313 311 310 312 313 315 316 319 318 319 323 324 329 330 333 334 337 341 344 343 340 339 336 332 331 330 327 329 327
296 292 299 300 300 298 298 295 295 300 307 308 307 308 311 313 313 313 311 312 313 315 315 316 318 324 325 328 329 333 335 337 342 346 347 343 340 334 332 330 327 330 328 325
294 298 304 302 300 298 296 295 296 297 301 306 306 304 308 313 313 315 313 314 314 314 314 316 318 324 325 327 329 333 335 338 344 347 346 338 335 330 327 324 326 327 327 327
296 302 302 300 299 299 293 300 301 300 295 290 305 296 304 308 311 313 316 313 314 314 316 317 318 323 325 328 332 333 339 339 344 347 346 340 337 329 325 324 325 324 326 328
297 299 299 297 299 301 298 301 298 300 293 291 292 294 299 305 306 310 314 315 315 318 315 317 319 322 326 328 329 341 342 346 345 346 346 342 336 328 323 323 323 322 324 326
300 303 302 301 304 303 303 299 296 294 292 286 291 292 291 298 306 308 314 316 318 314 318 318 321 322 325 335 342 344 344 341 344 345 343 341 329 324 322 322 322 323 323 324
298 299 302 304 300 301 298 291 286 285 285 286 293 290 293 300 303 304 305 307 310 307 319 318 320 321 332 336 340 342 339 332 334 340 341 337 329 325 324 323 322 322 322 321
292 292 300 305 301 298 296 293 287 282 283 286 292 288 294 303 306 307 306 308 309 315 312 320 321 326 332 337 339 338 332 333 332 332 341 334 327 325 324 325 323 324 324 324
293 294 304 306 306 302 298 292 295 289 287 285 289 293 300 305 309 309 309 307 308 316 323 319 324 331 332 337 337 333 328 327 332 339 340 331 328 324 324 324 323 324 323 324
299 293 303 307 306 303 299 300 292 288 284 282 287 290 293 300 303 306 305 304 306 317 327 327 330 331 334 336 336 333 329 330 331 343 337 332 328 327 325 324 323 323 324 325
300 296 297 303 299 299 298 295 293 291 290 286 284 289 299 300 303 305 306 307 306 318 329 330 329 332 333 334 333 328 322 322 329 341 338 331 329 327 325 324 324 323 324 325
302 297 293 297 303 305 301 298 295 289 289 290 289 290 304 304 305 307 308 309 309 311 323 331 331 331 330 329 328 323 323 326 336 343 336 332 330 329 323 324 324 324 324 326
305 294 290 293 298 301 297 300 298 295 292 290 287 290 304 307 306 308 308 310 311 311 311 328 330 330 328 326 325 325 329 334 342 340 335 331 330 330 326 324 325 325 326 327
308 296 293 289 294 299 298 301 300 295 290 292 292 294 300 303 305 306 307 307 309 310 313 327 329 327 327 327 325 325 327 340 339 337 334 331 331 330 326 325 324 328 327 326
302 296 299 301 304 303 300 299 299 296 296 293 297 295 299 305 308 309 306 306 309 310 309 328 331 327 325 324 325 326 327 340 338 336 333 332 332 331 328 326 325 327 326 326
299 294 298 295 303 302 299 301 302 300 299 298 298 296 308 309 310 310 310 313 310 311 311 319 336 336 333 330 332 337 337 339 337 335 333 333 331 331 329 328 327 327 323 319
297 296 292 289 299 297 292 300 302 301 302 299 294 300 306 305 307 308 309 309 311 314 312 311 324 338 340 341 341 341 341 341 337 335 333 332 331 329 328 328 327 321 317 316
296 296 295 290 293 286 296 303 303 301 303 306 306 305 305 305 308 311 311 308 310 317 321 314 312 326 340 341 342 343 340 338 335 334 334 334 332 330 329 328 325 319 316 314
300 296 292 287 287 293 296 300 302 300 299 307 305 306 305 307 308 307 310 311 311 317 319 320 319 319 323 330 340 341 338 336 335 333 332 333 332 330 328 326 321 318 315 313
299 299 293 288 285 283 296 304 307 307 294 307 308 306 304 305 297 301 308 310 310 313 319 315 323 324 320 329 338 337 335 335 334 334 334 334 332 328 326 322 318 316 315 311
291 291 290 288 286 292 300 305 307 294 294 307 307 307 305 302 304 307 309 308 310 312 317 316 315 316 319 323 326 333 334 333 335 335 333 331 329 327 324 320 316 313 312 307
289 287 287 289 285 285 303 303 295 300 307 308 307 306 307 307 308 309 309 308 309 310 314 318 316 316 319 320 322 330 331 331 330 328 325 324 323 320 318 314 313 312 309 306
285 290 286 288 288 295 300 296 301 308 306 304 307 308 310 309 308 309 308 309 310 311 313 315 313 314 318 319 325 326 324 326 324 322 320 319 317 315 313 312 311 310 309 306
291 293 286 287 290 293 295 297 302 303 300 300 306 309 309 307 309 308 309 309 310 311 312 313 312 313 319 323 322 318 322 323 320 318 316 314 312 312 313 312 311 309 309 306
290 290 287 287 291 293 295 297 298 298 300 301 301 305 308 307 307 308 307 308 309 312 312 312 312 312 316 322 318 316 316 318 317 313 312 312 310 311 310 310 310 310 310 307
289 287 284 284 291 291 293 296 298 297 298 300 300 302 306 308 306 307 306 307 310 311 312 311 313 314 317 319 316 313 312 313 312 310 310 310 310 309 309 307 305 298 301 299
Wind_Speed
5 4 6 10 8 7 4 4 8 7 10 5 16 13 22 24 16 17 19 21 20 22 23 16 15 18 18 18 18 17 14 10 11 7 5 4 5 3 4 4 6 7 5 7
6 6 13 8 7 6 7 7 10 12 9 3 3 7 6 9 22 23 22 21 23 19 14 15 15 18 22 22 20 18 18 17 13 10 8 5 7 3 3 3 4 6 6 7
8 13 1 5 9 6 7 7 6 9 2 5 5 8 4 5 6 8 10 20 23 23 22 18 17 22 21 23 22 20 19 18 15 11 7 5 5 5 3 3 3 4 7 7
6 13 8 10 8 5 7 7 6 3 4 2 2 5 5 8 12 10 16 17 22 21 21 20 22 22 24 27 20 15 11 12 10 9 10 11 10 9 4 4 4 5 7 7
12 7 8 5 9 4 11 6 4 2 2 4 4 4 10 4 8 12 14 12 16 22 24 25 26 28 29 15 11 12 14 12 10 13 12 13 11 6 6 5 7 5 5 8
9 5 6 8 8 5 5 4 8 5 4 3 6 8 7 6 11 8 19 20 20 15 25 28 30 28 13 14 15 17 18 13 11 13 12 13 12 11 10 8 8 5 4 5
7 10 8 3 7 7 6 8 5 6 5 8 7 1 10 8 8 11 13 13 18 14 20 23 23 17 17 19 19 18 21 16 20 23 17 13 13 14 16 13 8 8 6 4
5 11 4 4 8 10 8 10 7 7 4 7 4 7 7 8 11 12 11 14 6 7 11 23 21 22 22 23 24 22 18 16 17 20 17 10 12 9 9 12 9 9 9 8
7 10 8 4 8 8 7 5 9 3 0 3 5 9 8 5 8 11 13 5 8 5 6 11 18 19 20 20 22 20 17 12 15 17 13 11 11 11 11 11 9 8 8 8
6 7 7 12 4 3 8 4 2 2 3 7 6 4 6 10 4 10 12 6 3 1 5 6 16 20 20 22 20 19 19 15 14 15 12 11 12 10 10 11 12 11 11 11
4 4 9 1 4 8 4 3 2 3 5 7 4 7 8 9 5 2 7 5 5 3 10 10 11 15 20 20 20 17 8 11 12 13 12 13 12 12 12 11 12 12 12 11
4 2 2 6 8 4 5 8 5 6 10 4 4 7 7 7 8 2 6 5 7 9 9 8 17 17 17 17 17 15 13 14 16 15 14 14 13 12 11 11 11 11 12 11
7 4 4 11 9 7 3 1 4 3 4 4 3 7 7 6 7 8 7 8 9 7 11 10 9 15 18 18 17 17 15 17 14 15 14 14 14 15 13 11 10 10 12 13
5 1 5 7 7 2 6 5 3 5 2 5 5 6 10 12 14 11 10 9 10 10 8 17 14 15 16 17 17 17 14 14 14 16 15 15 15 15 13 12 12 13 13 14
5 3 3 6 8 7 8 9 7 5 7 7 10 6 6 11 15 17 14 11 10 13 8 16 16 16 16 16 15 15 13 16 16 16 15 15 14 13 12 12 12 12 13 13
5 5 5 6 8 5 6 10 8 11 9 8 7 7 9 13 17 21 22 25 23 14 11 17 18 18 18 19 19 18 17 18 17 17 16 13 14 14 14 14 14 15 13 13
2 2 4 6 6 14 9 6 6 5 3 4 3 2 10 11 17 18 17 20 22 25 20 10 17 22 22 23 23 20 20 17 17 17 16 16 16 16 16 14 15 15 16 17
7 3 4 6 2 12 6 6 6 6 12 9 6 7 8 11 15 10 6 19 25 31 25 20 9 15 20 19 16 17 16 18 18 16 16 15 16 16 15 15 16 16 16 18
12 3 4 4 6 12 11 9 7 5 4 8 8 8 9 15 10 2 18 18 18 23 24 20 16 12 18 21 19 20 19 19 17 18 17 18 19 18 18 18 17 16 16 14
4 8 5 3 4 5 2 7 11 7 6 11 11 11 13 15 11 7 21 20 19 19 18 23 22 19 10 13 19 19 20 20 20 19 18 18 18 19 20 18 17 15 15 15
6 4 6 5 6 3 6 9 11 4 7 8 4 5 6 5 5 11 14 15 13 14 15 18 17 19 21 26 4 18 19 21 19 15 15 15 15 16 15 15 13 15 15 14
2 3 3 3 3 5 9 5 5 7 5 3 8 7 9 9 11 7 9 13 15 18 16 12 15 17 21 28 30 15 18 14 16 16 15 16 15 11 12 15 13 15 15 16
4 2 3 3 4 5 6 6 10 5 5 9 6 8 8 11 11 10 6 8 10 12 14 11 13 18 22 25 30 4 9 16 15 15 15 15 14 13 14 16 14 11 13 14
6 5 2 6 5 8 20 15 3 6 7 11 12 10 8 10 12 12 9 6 7 5 7 12 14 12 15 14 17 13 8 12 15 15 13 13 14 13 11 9 11 12 12 12
6 6 6 10 16 12 9 9 7 14 13 13 14 13 14 12 12 14 10 9 6 7 4 2 7 12 11 13 12 7 3 9 13 9 12 12 11 11 11 9 10 11 13 15
4 6 4 7 10 10 14 10 18 16 16 12 10 10 12 13 15 14 12 9 6 8 5 3 2 3 2 10 11 6 3 9 10 8 8 8 9 9 9 9 7 10 10 13
Wind_Direction
295 69 242 245 202 227 266 245 263 281 267 226 217 181 170 184 192 187 194 195 203 209 206 197 184 179 174 180 177 178 171 174 155 159 138 124 154 139 161 192 127 118 134 111
5 245 239 241 256 227 241 243 269 276 245 126 17 234 46 166 195 196 198 197 207 211 207 204 179 180 181 181 182 182 180 171 175 172 164 147 151 163 149 135 109 124 142 132
189 246 301 219 263 263 252 203 236 235 299 34 88 337 310 300 239 212 216 208 207 202 205 201 185 189 184 188 185 184 182 176 170 166 140 76 72 62 87 107 131 148 162 138
220 265 249 272 261 236 265 207 239 269 74 273 126 253 265 233 223 215 234 200 213 211 213 200 193 191 193 197 184 168 167 163 160 164 171 166 171 164 177 160 183 159 143 135
251 285 290 270 239 201 233 203 166 173 106 121 305 101 268 280 295 255 241 232 218 216 204 203 196 196 202 157 137 117 116 103 83 319 203 184 176 161 148 140 148 142 137 134
235 243 204 229 261 222 256 22 25 49 67 305 241 155 268 227 223 257 258 253 249 223 209 205 201 200 147 137 132 142 138 144 158 203 243 209 164 152 148 151 158 163 135 146
302 278 286 226 314 333 79 55 346 340 336 249 250 323 222 260 250 226 249 238 233 197 211 211 203 179 149 148 152 161 160 172 198 199 209 196 165 162 164 166 162 159 155 160
195 306 207 234 190 227 246 157 163 226 221 261 259 249 262 226 273 279 252 254 248 196 203 202 182 166 160 162 166 169 176 179 196 195 209 173 162 164 163 176 169 174 172 165
178 253 259 235 253 132 257 183 189 147 322 25 239 299 321 307 333 331 306 248 199 180 145 148 158 161 163 166 175 174 177 199 189 199 183 164 172 163 167 167 169 177 155 155
263 267 222 255 171 202 154 194 113 352 211 263 271 272 240 301 311 329 351 29 138 128 105 120 156 165 173 175 173 183 187 194 184 182 168 167 170 162 163 167 176 174 161 160
235 159 289 305 203 211 317 348 54 124 139 194 242 264 229 239 247 16 329 322 307 212 177 170 171 176 175 176 179 185 160 158 175 178 166 166 171 165 167 179 188 166 160 155
302 152 258 257 284 258 163 188 141 126 286 242 192 252 256 245 236 259 335 310 262 177 198 218 174 176 175 181 181 186 179 178 190 179 167 170 163 164 170 177 188 158 165 158
325 335 7 339 345 346 15 324 125 132 87 223 256 282 296 266 266 265 243 250 261 278 176 174 205 185 182 187 189 190 187 186 175 165 164 167 167 173 175 172 171 161 158 168
45 24 175 203 236 226 303 315 15 102 65 271 237 293 309 298 302 291 266 250 249 253 210 185 196 195 196 195 191 193 193 184 174 167 170 172 177 179 166 170 171 165 163 163
66 268 353 264 267 288 276 277 287 221 208 221 280 265 303 339 336 328 312 285 251 251 205 185 195 200 198 196 205 206 199 185 176 175 176 182 175 168 169 167 164 158 162 168
3 289 336 292 295 344 307 311 300 281 278 249 246 265 358 323 328 343 333 334 322 271 221 196 188 191 191 196 200 195 192 194 175 177 184 176 172 173 172 170 167 161 155 153
264 211 10 257 325 330 314 220 250 306 4 289 344 28 329 337 340 332 343 348 334 329 297 222 200 193 191 195 196 191 188 177 184 180 178 179 177 179 177 172 164 160 159 156
230 202 192 252 34 267 239 357 340 318 35 40 40 9 345 311 300 293 16 348 337 337 319 281 205 202 205 202 203 191 174 176 182 178 181 175 178 175 171 173 173 165 157 164
213 189 270 241 214 287 303 339 359 10 54 31 6 352 341 331 308 302 2 350 338 335 349 337 294 204 200 201 182 178 174 173 179 189 179 181 175 173 171 174 171 162 157 159
171 207 194 320 281 281 349 340 325 274 255 11 18 1 351 353 358 321 336 333 334 336 329 347 350 351 301 186 174 166 166 168 181 186 180 178 166 172 173 168 164 162 159 151
312 329 227 238 229 254 339 356 310 261 332 323 358 330 324 333 243 293 315 326 331 320 334 338 354 4 3 353 225 168 167 177 182 165 160 156 167 167 163 153 152 151 147 141
310 313 299 318 254 255 354 40 29 290 295 285 313 318 299 279 285 285 309 325 340 344 333 348 346 353 337 333 327 151 159 147 138 136 139 138 145 140 145 145 146 150 147 146
304 203 260 254 251 290 65 333 281 249 266 308 268 276 273 279 281 286 287 304 325 354 359 3 13 360 347 350 321 303 131 128 126 124 133 132 131 135 141 143 146 144 152 150
285 27 262 11 266 312 325 312 353 348 307 302 296 260 268 268 282 280 271 270 294 321 350 355 11 5 17 321 307 348 316 111 117 121 125 124 126 133 143 146 151 151 156 154
245 337 264 273 288 288 264 302 293 299 292 286 289 273 244 248 256 272 278 260 254 274 259 82 352 6 16 282 284 304 353 88 96 116 126 130 132 142 146 152 161 166 169 166
200 223 190 250 279 278 279 277 293 290 287 272 268 282 269 253 262 266 275 274 242 257 249 229 166 309 26 300 305 298 48 101 109 137 128 133 139 143 150 144 122 61 127 118